EW3148 Weather Reports


time (UTC)temp
F
wind
direction
speed
knots
gust
knots
rain 1hr
in
rain 24hr
in
rain mn
in
humidity
%
barometer
mb
20260502200634 75 57 2.6 9.6 0.00 0.12 0.01 44 1020.1
20260502195606 74 30 2.6 9.6 0.00 0.12 0.01 49 1020.3
20260502194604 74 55 2.6 9.6 0.00 0.12 0.01 44 1020.3
20260502193628 73 77 2.6 9.6 0.00 0.12 0.01 45 1020.3
20260502192611 74 0 1.7 9.6 0.00 0.13 0.01 45 1020.4
20260502191632 74 100 3.5 9.6 0.00 0.14 0.01 45 1020.5
20260502184308 72 0 2.6 8.7 0.00 0.15 0.01 52 1020.6
20260502182116 72 338 3.5 9.6 0.00 0.16 0.01 51 1020.9
20260502181137 71 286 2.6 11.3 0.00 0.18 0.01 56 1021.0
20260502162440 67 336 2.6 10.4 0.00 0.39 0.01 63 1022.1
20260502161416 67 5 1.7 7.8 0.00 0.39 0.01 63 1022.2
20260502160410 66 347 1.7 7.8 0.00 0.39 0.01 60 1022.2
20260502152223 63 5 1.7 6.1 0.00 0.42 0.01 72 1022.1
20260502151225 62 355 0.9 7.0 0.00 0.44 0.01 75 1022.2
20260502150210 62 9 2.6 7.0 0.00 0.44 0.01 73 1022.1
20260502123704 48 324 0.0 1.7 0.00 0.53 0.01 96 1020.3
20260502122624 47 327 0.0 0.9 0.00 0.54 0.01 96 1020.3
20260502121626 47 311 0.0 0.9 0.00 0.59 0.01 95 1020.0
20260502120620 47 355 0.0 0.9 0.00 0.60 0.01 95 1019.7
20260502115625 47 355 0.0 0.0 0.00 0.60 0.01 95 1019.5
20260502113508 48 355 0.0 0.0 0.00 0.70 0.01 95 1019.3
20260502112450 48 355 0.0 0.9 0.00 0.73 0.01 95 1019.2
20260502111453 48 355 0.0 1.7 0.00 0.76 0.01 95 1019.0
20260502110419 48 0 0.0 1.7 0.00 0.79 0.01 95 1018.9
20260502104315 48 346 0.0 2.6 0.00 0.82 0.01 95 1018.9
20260502103340 49 0 0.9 2.6 0.00 0.83 0.01 95 1018.6
20260502101247 49 336 1.7 4.3 0.00 0.89 0.01 95 1018.1
20260502090852 50 11 1.7 5.2 0.00 0.97 0.00 95 1017.2
20260502070607 51 355 1.7 4.3 0.00 1.17 0.00 95 1016.9
20260502065606 51 5 0.9 4.3 0.00 1.17 0.00 95 1016.8
20260502064607 51 30 1.7 4.3 0.00 1.17 0.00 95 1016.8
20260502063607 51 0 0.9 3.5 0.00 1.17 0.00 95 1016.8
20260502062536 51 351 1.7 6.1 0.00 1.17 0.00 95 1017.0
20260502061502 51 17 1.7 5.2 0.00 1.17 0.00 95 1017.1
20260502060449 51 339 0.9 2.6 0.00 1.18 0.00 95 1017.1
20260502055446 51 0 0.9 2.6 0.00 1.18 0.00 95 1017.1
20260502054413 51 13 0.9 1.7 0.00 1.18 0.00 95 1017.3
20260502053400 51 9 0.9 3.5 0.00 1.18 0.00 95 1017.1
20260502052328 51 355 0.9 3.5 0.00 1.18 0.00 95 1017.0
20260502051339 52 342 0.9 2.6 0.00 1.18 0.00 94 1016.9
20260502050330 52 40 0.0 3.5 0.00 1.18 0.00 94 1016.7
20260502044115 52 49 0.9 5.2 0.00 1.18 1.18 94 1016.6
20260502043112 52 24 0.9 3.5 0.00 1.18 1.18 94 1016.8
20260502040919 52 35 0.9 4.3 0.00 1.18 1.18 94 1016.9
20260502035903 53 342 0.9 7.0 0.00 1.18 1.18 94 1016.6
20260502034910 53 345 1.7 7.8 0.00 1.18 1.18 94 1016.6
20260502033859 53 24 2.6 7.8 0.00 1.18 1.18 94 1016.7
20260502032833 53 348 2.6 7.0 0.00 1.18 1.18 94 1016.8
20260502031844 53 355 2.6 7.8 0.00 1.18 1.18 94 1016.7
20260502025646 52 22 2.6 8.7 0.00 1.18 1.18 94 1016.3
20260502023520 52 36 3.5 9.6 0.00 1.19 1.18 94 1015.8
20260502022448 52 342 2.6 12.2 0.00 1.19 1.18 94 1015.7
20260502021454 52 47 2.6 12.2 0.00 1.19 1.18 94 1015.5
20260502015319 53 31 2.6 8.7 0.00 1.20 1.18 95 1015.3
20260502014329 53 15 2.6 11.3 0.00 1.20 1.18 95 1015.1
20260502013322 53 55 3.5 11.3 0.00 1.20 1.18 95 1014.9
20260502012345 53 58 2.6 10.4 0.00 1.20 1.18 95 1014.7
20260502011315 53 32 2.6 10.4 0.00 1.20 1.18 95 1014.5
20260502010334 53 13 3.5 9.6 0.00 1.20 1.18 95 1014.5
20260502005309 53 344 4.3 12.2 0.00 1.20 1.18 95 1014.2
20260502004332 53 5 5.2 13.0 0.00 1.20 1.18 95 1014.1
20260502003317 54 26 5.2 15.6 0.00 1.20 1.18 95 1013.9
20260502002310 54 51 5.2 15.6 0.00 1.20 1.18 95 1013.7
20260502001240 55 72 3.5 10.4 0.00 1.20 1.18 96 1013.1
20260502000244 55 30 3.5 10.4 0.00 1.20 1.18 96 1012.8
20260501235243 55 42 4.3 12.2 0.00 1.20 1.18 96 1012.6
20260501234250 55 34 5.2 13.9 0.00 1.20 1.18 96 1012.7
20260501233257 55 19 4.3 14.8 0.00 1.19 1.17 96 1012.1
20260501232254 55 346 4.3 17.4 0.00 1.19 1.17 96 1012.6
20260501231233 55 332 6.1 17.4 0.00 1.19 1.17 96 1012.8
20260501230211 56 29 5.2 14.8 0.00 1.19 1.17 96 1012.5
20260501225218 56 38 6.1 15.6 0.00 1.19 1.17 96 1012.1
20260501223039 56 28 5.2 13.0 0.00 1.18 1.15 96 1012.2
20260501222050 56 11 5.2 13.0 0.00 1.18 1.15 96 1012.1
20260501221056 57 350 7.0 18.2 0.00 1.18 1.15 96 1011.9
20260501220113 57 348 6.1 18.2 0.00 1.18 1.15 96 1011.2
20260501215135 57 306 5.2 14.8 0.04 1.16 1.15 96 1011.8
20260501214143 57 5 5.2 14.8 0.10 1.16 1.15 96 1012.1
20260501213125 57 311 5.2 13.0 0.15 1.14 1.14 96 1011.6
20260501212148 57 350 4.3 12.2 0.05 1.12 1.10 96 1011.0
20260501211139 57 19 3.5 10.4 0.09 1.12 1.10 96 1011.6
20260501210106 57 348 3.5 10.4 0.00 1.09 1.08 96 1011.1
20260501205049 58 298 5.2 14.8 0.00 1.08 1.07 96 1010.8
20260501204043 58 5 4.3 14.8 0.00 1.08 1.07 96 1010.5
20260501201916 58 13 4.3 11.3 0.00 1.08 1.07 96 1009.3